EW5134 Weather Reports


time (UTC)temp
C
wind
direction
speed
KPH
gust
KPH
rain 1hr
cm
rain 24hr
cm
rain mn
cm
humidity
%
barometer
mb
20260509173639 11 190 6.4 14.5 0.00 0.00 0.00 87 1008.5
20260509172142 11 197 4.8 12.9 0.00 0.00 0.00 88 1008.6
20260509170639 11 200 4.8 14.5 0.00 0.00 0.00 88 1008.7
20260509165144 11 188 6.4 20.9 0.00 0.00 0.00 88 1008.9
20260509163634 11 135 6.4 14.5 0.00 0.00 0.00 88 1008.7
20260509162135 11 192 4.8 16.1 0.00 0.00 0.00 89 1009.0
20260509160635 10 196 6.4 19.3 0.00 0.00 0.00 89 1009.4
20260509155113 10 185 4.8 4.8 0.00 0.00 0.00 90 1009.5
20260509153613 10 204 4.8 14.5 0.00 0.00 0.00 91 1009.4
20260509152056 10 177 3.2 11.3 0.00 0.00 0.00 91 1009.6
20260509150553 10 203 3.2 12.9 0.00 0.00 0.00 92 1009.8
20260509145053 10 143 3.2 8.0 0.00 0.00 0.00 92 1009.8
20260509143555 10 148 3.2 14.5 0.00 0.00 0.00 92 1009.8
20260509142052 10 175 4.8 11.3 0.00 0.00 0.00 92 1009.8
20260509140551 9 184 3.2 11.3 0.00 0.00 0.00 93 1010.0
20260509135051 9 206 3.2 11.3 0.00 0.00 0.00 92 1010.0
20260509133551 9 148 4.8 16.1 0.00 0.00 0.00 92 1010.1
20260509132053 8 157 8.0 17.7 0.00 0.00 0.00 93 1010.0
20260509131242 8 289 4.8 12.9 0.00 0.00 0.00 93 1010.1
20260509125050 8 230 3.2 11.3 0.00 0.00 0.00 93 1010.1
20260509123551 8 201 3.2 9.7 0.00 0.00 0.00 93 1010.1
20260509122046 8 146 4.8 12.9 0.00 0.00 0.00 92 1010.3
20260509120545 8 148 4.8 14.5 0.00 0.00 0.00 91 1010.5
20260509115044 7 151 3.2 9.7 0.00 0.00 0.00 90 1010.7
20260509113542 7 123 4.8 12.9 0.00 0.00 0.00 89 1010.6
20260509112047 7 138 3.2 12.9 0.00 0.00 0.00 88 1010.7
20260509110545 7 147 3.2 9.7 0.00 0.00 0.00 87 1010.5
20260509105045 7 197 3.2 8.0 0.00 0.00 0.00 87 1010.3
20260509104952 7 167 3.2 8.0 0.00 0.00 0.00 87 1010.2
20260509102045 7 153 1.6 9.7 0.00 0.00 0.00 86 1010.4
20260509100543 7 179 3.2 8.0 0.00 0.00 0.00 86 1010.2
20260509095044 7 144 1.6 8.0 0.00 0.00 0.00 85 1010.1
20260509093526 7 113 3.2 6.4 0.00 0.00 0.00 85 1010.0
20260509092026 7 130 1.6 4.8 0.00 0.00 0.00 84 1009.8
20260509090524 7 202 1.6 6.4 0.00 0.00 0.00 83 1010.2
20260509085719 7 173 3.2 6.4 0.00 0.00 0.00 83 1010.3
20260509083521 7 140 1.6 8.0 0.00 0.00 0.00 83 1010.6
20260509082023 6 119 1.6 4.8 0.00 0.00 0.00 84 1010.6
20260509081901 6 116 3.2 6.4 0.00 0.00 0.00 82 1010.7
20260509075019 6 109 1.6 4.8 0.00 0.00 0.00 82 1010.6
20260509073518 6 277 1.6 4.8 0.00 0.00 0.00 80 1010.8
20260509072719 5 176 1.6 3.2 0.00 0.00 0.00 80 1010.9
20260509070107 4 65 1.6 4.8 0.00 0.00 0.00 82 1010.9
20260509064608 4 65 1.6 4.8 0.00 0.00 0.00 84 1011.0
20260509063107 5 85 1.6 3.2 0.00 0.00 0.00 84 1011.1
20260509061605 5 355 3.2 4.8 0.00 0.00 0.00 81 1011.4
20260509054605 5 70 1.6 3.2 0.00 0.00 0.00 85 1011.7
20260509053103 5 70 1.6 3.2 0.00 0.00 0.00 86 1011.9
20260509051604 5 70 1.6 6.4 0.00 0.00 0.00 86 1012.1
20260509050758 5 70 3.2 6.4 0.00 0.00 0.00 87 1012.1
20260509045316 4 61 0.0 3.2 0.00 0.00 0.00 89 1012.4
20260509043103 5 61 1.6 3.2 0.00 0.00 0.00 91 1012.4
20260509041605 4 61 1.6 4.8 0.00 0.00 0.00 90 1012.6
20260509040104 3 61 1.6 3.2 0.00 0.00 0.00 88 1012.6
20260509034603 3 61 1.6 6.4 0.00 0.00 0.15 88 1012.6
20260509033104 3 86 1.6 4.8 0.00 0.00 0.15 87 1012.7
20260509032310 3 63 3.2 4.8 0.00 0.00 0.15 88 1012.4
20260509030104 3 63 1.6 6.4 0.00 0.00 0.15 87 1012.7
20260509024545 3 51 1.6 4.8 0.00 0.00 0.15 87 1012.9
20260509023044 3 61 1.6 4.8 0.00 0.00 0.15 86 1013.0
20260509021545 4 61 3.2 4.8 0.00 0.00 0.15 85 1013.1
20260509020043 4 59 1.6 3.2 0.00 0.00 0.15 82 1013.0
20260509014545 4 58 0.0 3.2 0.00 0.00 0.15 83 1012.7
20260509013043 5 58 3.2 4.8 0.00 0.00 0.15 83 1012.6
20260509012245 5 67 1.6 3.2 0.00 0.00 0.15 82 1012.4
20260509010043 6 67 1.6 3.2 0.00 0.00 0.15 80 1012.2
20260509005247 6 205 0.0 3.2 0.00 0.00 0.15 75 1011.9
20260509003040 7 205 0.0 1.6 0.00 0.00 0.15 74 1011.9
20260509001542 8 205 1.6 1.6 0.00 0.00 0.15 64 1011.7
20260509000040 10 205 0.0 1.6 0.00 0.00 0.15 65 1011.8
20260508234544 10 205 0.0 4.8 0.00 0.00 0.15 60 1011.5
20260508233038 10 265 1.6 8.0 0.00 0.00 0.15 59 1011.5
20260508232233 11 181 3.2 6.4 0.00 0.00 0.15 57 1011.5
20260508230033 11 13 3.2 9.7 0.00 0.00 0.15 58 1011.6
20260508224536 11 348 3.2 8.0 0.00 0.00 0.15 57 1011.5
20260508223023 10 24 8.0 16.1 0.00 0.10 0.15 56 1011.6
20260508221520 11 294 6.4 16.1 0.00 0.10 0.15 56 1011.7
20260508220713 11 12 6.4 12.9 0.00 0.10 0.15 57 1011.7
20260508214455 11 193 6.4 19.3 0.00 0.10 0.15 56 1011.8
20260508213658 10 355 8.0 24.1 0.00 0.10 0.15 59 1011.7
20260508211454 11 283 8.0 20.9 0.00 0.10 0.15 59 1011.9
20260508205953 11 225 6.4 19.3 0.00 0.10 0.15 61 1012.1
20260508204455 10 291 8.0 22.5 0.00 0.10 0.15 61 1012.2
20260508202954 10 315 9.7 25.7 0.00 0.10 0.15 64 1012.2
20260508201455 10 310 14.5 25.7 0.00 0.10 0.15 60 1012.1
20260508195953 10 200 11.3 25.7 0.00 0.10 0.15 63 1012.6
20260508194455 10 311 12.9 27.4 0.00 0.10 0.15 66 1012.5
20260508193641 9 317 12.9 22.5 0.00 0.10 0.15 66 1012.6
20260508191454 9 284 9.7 22.5 0.00 0.10 0.15 67 1012.6
20260508191354 8 275 9.7 17.7 0.00 0.10 0.15 70 1012.8
20260508184451 7 274 9.7 19.3 0.00 0.10 0.15 72 1013.0
20260508182950 8 287 12.9 24.1 0.00 0.10 0.15 73 1013.1
20260508181452 7 267 8.0 20.9 0.00 0.10 0.15 76 1013.1
20260508181347 7 275 9.7 25.7 0.00 0.10 0.15 80 1013.2
20260508174450 7 243 6.4 19.3 0.00 0.10 0.15 81 1013.1